Regional Weather Roundup
Issued by NWS

Home | Current Version | Previous Version | Text Only | Print | Product List | Glossary Off
Versions: 1 2 3 4 5 6 7 8 9 10 11 12 13 14 15 16 17 18 19 20 21 22 23 24 25 26 27 28 29 30 31 32 33 34 35 36 37 38 39 40 41 42 43 44 45 46 47 48 49 50

000
ASUS43 KLMK 171902
RWRKY
KENTUCKY REGIONAL WEATHER ROUNDUP
NATIONAL WEATHER SERVICE LOUISVILLE KY
300 PM EDT WED SEP 17 2014

NOTE "FAIR" INDICATES FEW OR NO CLOUDS BELOW 12,000 FEET
WITH NO SIGNIFICANT WEATHER AND/OR OBSTRUCTIONS TO VISIBILITY.

KYZ001>023-026-027-061>063-070>075-172000-
WESTERN AND SOUTH CENTRAL KENTUCKY

CITY           SKY/WX    TMP DP  RH WIND       PRES   REMARKS
PADUCAH        CLOUDY    70  55  59 E5        30.00F
HENDERSON      PTSUNNY   70  52  52 NE5       30.01F
OWENSBORO      MOSUNNY   70  52  52 W8        30.03F
HOPKINSVILLE   CLOUDY    70  54  56 NW3       30.02F
BOWLING GREEN  MOSUNNY   70  53  54 VRB5      30.03S
GLASGOW        MOSUNNY   70  53  53 W7        30.02S
$$

KYZ024-025-028>034-038-045-046-053-172000-
NORTH CENTRAL KENTUCKY

CITY           SKY/WX    TMP DP  RH WIND       PRES   REMARKS
LOUISVILLE/SDF PTSUNNY   70  51  51 SW6       30.02F
LOUISVILLE/LOU PTSUNNY   67  50  54 S5        30.03S
FORT KNOX      MOSUNNY   68  53  57 SW6       30.02S
$$

KYZ035>037-039>044-047>052-055>060-089>105-172000-
NORTHEAST KENTUCKY

CITY           SKY/WX    TMP DP  RH WIND       PRES   REMARKS
LEXINGTON      MOSUNNY   72  53  51 N7        30.01F
COVINGTON      PTSUNNY   65  48  54 CALM      30.02F
FRANKFORT      MOSUNNY   67  50  54 VRB3      30.01S
$$

KYZ054-064>069-076>088-106>120-172000-
SOUTHEAST KENTUCKY

CITY           SKY/WX    TMP DP  RH WIND       PRES   REMARKS
JACKSON        PTSUNNY   67  53  61 NW5       30.01S
LONDON         SUNNY     70  52  52 VRB5      30.00F
SOMERSET       NOT AVBL
MIDDLESBORO    MOSUNNY   74  57  56 CALM      29.98F
MONTICELLO     CLEAR     72  52  49 VRB7      30.02F
$$



USA.gov is the U.S. government's official web portal to all federal, state and local government web resources and services.